Flag for Argentina Weather past 2 weeks in Río Grande, Tierra del Fuego, Argentina

Now
46 °F

Sunny.


Feels Like: 44 °F
Forecast: 28 / 44 °F
Wind: 6 mph from West

Location: Rio Grande B. A.

Current Time: Sep 30, 2014 at 3:50:03 PM

Latest Report: Sep 30, 2014 at 3:00 PM


Visibility: 10 mi

Pressure: 30.01 "Hg

Humidity: 53%

Dew point: 30 °F

Location of Río GrandeLocation

Historic Weather in Río Grande — Graph

°F

Río Grande temperature yesterday

Maximum temperature yesterday: 41 °F (at 3:00 PM)
Minimum temperature yesterday: 28 °F (at 1:00 AM)
Average temperature yesterday: 34 °F

Past Weeks' High & Low Weather Summary

 TemperatureHumidityPressure
High50 °F (Sep 22, 2:00 PM)100% (Sep 20, 2:00 AM)30.15 "Hg (Sep 20, 2:00 AM)
Low25 °F (Sep 28, 3:00 AM)50% (Sep 18, 3:00 PM)29.03 "Hg (Sep 17, 4:00 AM)
Average39 °F81%29.51 "Hg
* Reported Sep 15 2:00 PM — Sep 30 2:00 PM, Río Grande, Weather by CustomWeather, © 2014

Note: Actual official high and low records may vary slightly from our data, if they occured in-between our weather recording intervals... More about our weather records

Advertising

Río Grande weather history for previous 24 hours

 ConditionsComfort  
Time TempWeatherWind HumidityBarometerVisibility
2:00 PM
Sep 30
45 °FPassing clouds.6 mph57%30.01 "HgN/A
1:00 PM43 °FPassing clouds.5 mph61%30.01 "HgN/A
12:00 PM41 °FPassing clouds.8 mph66%30.01 "HgN/A
11:00 AM39 °FPassing clouds.6 mph70%30.01 "HgN/A
10:00 AM36 °FSunny.6 mph70%30.01 "Hg10 mi
9:00 AM30 °FSunny.7 mph100%30.01 "Hg10 mi
8:00 AM27 °FSunny.6 mph93%30.01 "Hg10 mi
7:00 AM27 °FSunny.7 mph93%29.98 "Hg10 mi
5:00 AM28 °FClear.8 mph86%29.98 "Hg10 mi
1:00 AM34 °FPassing clouds.3 mph87%29.95 "HgN/A
12:00 AM34 °FPassing clouds.5 mph87%29.95 "HgN/A
10:00 PM
Sep 29
37 °FPassing clouds.9 mph75%29.92 "HgN/A
9:00 PM37 °FPassing clouds.7 mph70%29.92 "HgN/A
8:00 PM37 °FPassing clouds.10 mph70%29.92 "HgN/A
7:00 PM37 °FPassing clouds.13 mph65%29.89 "HgN/A
6:00 PM39 °FScattered clouds.12 mph61%29.89 "HgN/A
5:00 PM39 °FPartly sunny.14 mph61%29.89 "HgN/A
4:00 PM41 °FPartly sunny.10 mph61%29.89 "HgN/A
3:00 PM41 °FPartly sunny.5 mph57%29.89 "HgN/A
Weather by CustomWeather, © 2014

See weather overviewHow to use our weather pages